Location: Unspecified
(0.0000°N, 0.0000°E)
Time: 09:45:13
(UTC+00:00)

Vanguard 2 Rocket - Pass Details

Date: 08 October 2022
Orbit: 555 x 3321 km, 32.9° (Epoch: 29 November)

Event Time Altitude Azimuth Distance (km) Brightness Sun altitude
Rises 19:33:38 0° 257° (WSW) 6,989 12.7 -26.4°
Reaches altitude 10° 19:38:39 10° 264° (W) 6,150 12.1 -27.6°
Maximum altitude 19:56:45 40° 326° (NNW) 4,143 10.2 -32.1°
Enters shadow 20:09:22 18° 24° (NNE) 4,843 10.3 -35.2°
